ハインズ彗星

C/2017 T1 ( Heinze )

English version
Home page
Updated on November 16, 2017

---------------------------------------------------------------------

・ プロフィール

発見日 2017年10月2日
発見光度 18.2等
発見者 Aren Heinze (Asteroid Terrestrial-impact Last Alert System (ATLAS) search program)

・ 写真集

・ 軌道要素

T 2018 Feb. 21.41064 TT                                 MPCW
q   0.5794553            (2000.0)            P               Q
                   Peri.   96.93843     +0.14394127     +0.19521677
                   Node   102.19125     -0.47677108     -0.84538709
e   1.0            Incl.   97.01083     +0.86716218     -0.49720326
From 87 observations 2017 Sept. 28-Oct. 16.

・ 星図

・ 光度変化

        m1 = 11.5 + 5 logΔ + 10.0 log r

---------------------------------------------------------------------

軌道要素はM.P.E.C. 2017-U15に掲載されたものです。
星図はステラナビゲータ Ver.10 (アストロアーツ) で作成したものです。
光度グラフはComet for Windowsで作成したものです。

---------------------------------------------------------------------

Copyright(C) Seiichi Yoshida (comet@aerith.net). All rights reserved.